Regional Weather Roundup
Issued by NWS

Home | Current Version | Previous Version | Graphics & Text | Print | Product List | Glossary On
Versions: 1 2 3 4 5 6 7 8 9 10 11 12 13 14 15 16 17 18 19 20 21 22 23 24 25 26 27 28 29 30 31 32 33 34 35 36 37 38 39 40 41 42 43 44 45 46 47 48 49 50
000
ASUS43 KMPX 261910
RWRMN
WEATHER ROUNDUP FOR MINNESOTA
NATIONAL WEATHER SERVICE TWIN CITIES/CHANHASSEN MN
200 PM CDT WED APR 26 2017


NOTE: "FAIR" INDICATES FEW OR NO CLOUDS BELOW 12,000 FEET WITH NO
SIGNIFICANT WEATHER AND/OR OBSTRUCTIONS TO VISIBILITY. N/A MEANS
CURRENT SKY AND/OR WEATHER CONDITIONS ARE NOT AVAILABLE.

MNZ060>063-068>070-262000-
   Twin Cities Metro

CITY           SKY/WX    TMP DP  RH WIND       PRES   REMARKS
TWIN CITIES    CLOUDY    39  34  82 N13       29.52S
ST PAUL        CLOUDY    39  36  89 NW16      29.53S
CRYSTAL        LGT RAIN  39  33  79 N14       29.52R
BLAINE         CLOUDY    37  37 100 N13       29.54R FOG
LAKEVILLE      CLOUDY    37  37 100 N13       29.53S
EDEN PRAIRIE   CLOUDY    41  34  76 N10       29.53R
SOUTH ST PAUL  CLOUDY    39  39  99 N10G17    29.52S
LAKE ELMO      CLOUDY    37  36  93 NW12      29.52R
$$
MNZ001>005-007-008-013>017-022>024-027-028-262000-
   Northwest Minnesota

CITY           SKY/WX    TMP DP  RH WIND       PRES   REMARKS
BEMIDJI        LGT SNOW  27  23  84 NE13G21   29.67S WCI  16
HALLOCK        CLOUDY    32  25  74 N15G21    29.81F WCI  22
ROSEAU         CLOUDY    30  25  80 NE18G28   29.79S WCI  18
WARROAD        LGT SNOW  28  25  86 NE17G23   29.79F WCI  16
CROOKSTON      FLURRIES  28  27  93 N14G22    29.77F WCI  17
FOSSTON        LGT SNOW  27  25  93 N12G17    29.70F WCI  16
DETROIT LAKES  CLOUDY    30  27  86 NE7       29.67S WCI  23
MOORHEAD       RAIN      28  25  86 N8        29.73S WCI  20
PARK RAPIDS    LGT SNOW  29  22  75 N14       29.62F WCI  18
MAHNOMEN       LGT SNOW  27  24  89 N7        29.68F WCI  19
$$
MNZ006-009>011-018-025>026-262000-
   North Central Minnesota

CITY           SKY/WX    TMP DP  RH WIND       PRES   REMARKS
BAUDETTE       LGT SNOW  28  23  81 NE13G25   29.75S VSB 3/4 WCI  17
FLAG ISLAND    CLOUDY    30  21  69 NE23G36   29.80F WCI  17
INTL FALLS     LGT SNOW  27  21  78 NE15G26   29.71F VSB 3/4 WCI  15
WASKISH        CLOUDY    28  25  86 NE13G22   29.70F HAZE    WCI  18
BIG FORK       LGT SNOW  28  25  86 N9G20     29.65F WCI  20
LONGVILLE      CLOUDY    28  25  86 N8        29.61F FOG     WCI  20
GRAND RAPIDS   FLURRIES  28  24  85 N12G20    29.62  WCI  18
CRANE LAKE     LGT SNOW  25  21  86 NE10      29.70S WCI  15
ORR            RAIN      27  21  80 N3        29.63F
COOK           LGT SNOW  27  23  86 N9        29.64F WCI  17
WALKER         LGT SNOW  27  23  85 N12       29.64F WCI  17
$$
MNZ012-019>021-037-262000-
   Northeast Minnesota

CITY           SKY/WX    TMP DP  RH WIND       PRES   REMARKS
DULUTH         LGT SNOW  34  31  88 N9        29.54S VSB 3/4 WCI  27
ELY            LGT SNOW  27  25  93 N7G16     29.60F WCI  19
HIBBING        MIX PCPN  28  25  88 N13       29.60F FOG     WCI  17
EVELETH        MIX PCPN  32  27  82 NE8       29.60F WCI  25
DULUTH HARBOR  LGT RAIN  36  34  93 NE18      29.57F
TWO HARBORS    LGT SNOW  36  30  80 NE5       29.54F
SILVER BAY     LGT SNOW  34  30  86 N3        29.55S
GRAND MARAIS     N/A     33  28  81 NE9G18    29.57S WCI  25
G MARAIS ARPRT CLOUDY    27  21  80 N5        29.53S FOG     WCI  21
$$
MNZ029>031-032-039>041-046>048-054>057-064-262000-
   West Central Minnesota

CITY           SKY/WX    TMP DP  RH WIND       PRES   REMARKS
FERGUS FALLS   CLOUDY    30  25  80 N14       29.66F WCI  20
WHEATON        CLOUDY    28  27  93 NW20G26   29.70F FOG     WCI  15
MORRIS         CLOUDY    34  30  86 N15       29.64R WCI  24
ALEXANDRIA     CLOUDY    31  28  89 NE12      29.62S WCI  22
ELBOW LAKE     CLOUDY    32  27  80 NE13G18   29.64F WCI  22
WADENA         LGT SNOW  28  27  93 N7        29.61F WCI  21
GLENWOOD       CLOUDY    30  28  93 N10       29.62R WCI  21
APPLETON       CLOUDY    36  30  80 NW13      29.65R
BENSON         CLOUDY    37  27  65 NE9       29.66R
ORTONVILLE     CLOUDY    30  27  86 N18       29.68R FOG     WCI  18
MADISON        CLOUDY    36  36 100 N17       29.67R FOG
WILLMAR        CLOUDY    37  34  87 N12       29.63R
$$
MNZ033>034-036-042>043-049>051-058-059-262000-
   Central Minnesota

CITY           SKY/WX    TMP DP  RH WIND       PRES   REMARKS
ST CLOUD       CLOUDY    36  32  85 N9G20     29.58R
SAUK CENTRE    CLOUDY    32  29  88 N9        29.62R WCI  24
PAYNESVILLE    CLOUDY    33  33 100 N9        29.62R WCI  25
AITKIN         MIX PCPN  34  28  80 N10G17    29.55F WCI  26
PINE RIVER     FLURRIES  28  27  93 N8        29.64F WCI  20
BRAINERD       MIX PCPN  31  28  89 N13       29.59F WCI  21
STAPLES        LGT SNOW  28  27  93 CALM      29.61F
LONG PRAIRIE   CLOUDY    30  28  93 CALM      29.61R
LITTLE FALLS   CLOUDY    32  30  93 N6        29.60R WCI  26
LITCHFIELD     CLOUDY    37  34  87 N8        29.60R
BUFFALO        CLOUDY    37  34  89 NW10      29.57R
MAPLE LAKE     CLOUDY    37  34  89 N12       29.58R
HUTCHINSON     CLOUDY    38  33  84 NW15      29.59S
$$
MNZ037-044-045-052-053-262000-
   East Central Minnesota

CITY           SKY/WX    TMP DP  RH WIND       PRES   REMARKS
PRINCETON      LGT RAIN  37  34  87 N8        29.57R
MORA           MIX PCPN  34  32  93 N8        29.58R WCI  27
CAMBRIDGE      LGT RAIN  37  34  87 N8        29.54R
RUSH CITY      CLOUDY    36  32  87 N12G17    29.55R
MOOSE LAKE     LGT SNOW  34  32  93 N13       29.52F WCI  25
HINCKLEY       CLOUDY    36  34  93 NE15G21   29.55R
CLOQUET        LGT SNOW  34  30  86 N7        29.54F WCI  28
MCGREGOR       CLOUDY    32  30  93 N8        29.56F WCI  25
$$
MNZ071>073-080-081-089-090-097-098-262000-
   Southwest Minnesota

CITY           SKY/WX    TMP DP  RH WIND       PRES   REMARKS
MONTEVIDEO     CLOUDY    36  34  93 N12       29.64R
GRANITE FALLS  CLOUDY    39  33  80 NW12      29.65R
CANBY          CLOUDY    34  31  91 W16G24    29.68R WCI  23
REDWOOD FALLS  CLOUDY    39  31  72 NW12      29.61R
OLIVIA         CLOUDY    37  32  81 N13       29.60S
PIPESTONE      CLOUDY    34  27  75 N16G24    29.64R WCI  23
WINDOM         SUNNY     37  36  93 NW17      29.61S
JACKSON        CLOUDY    37  34  87 NW15G24   29.61R
TRACY          CLOUDY    36  34  92 NW18      29.63S
SLAYTON        CLOUDY    33  32  96 NW20      29.63S WCI  21
$$
MNZ065>067-074>077-082>085-091>093-262000-
   South Central Minnesota

CITY           SKY/WX    TMP DP  RH WIND       PRES   REMARKS
MANKATO        CLOUDY    39  34  82 NW15      29.56S
NEW ULM        CLOUDY    39  34  81 NW15      29.58F
ST JAMES       CLOUDY    39  36  87 NW14      29.60R
GLENCOE        CLOUDY    39  37  91 NW13      29.56F
FARIBAULT      CLOUDY    39  36  87 NW8       29.54R
OWATONNA       CLOUDY    39  36  87 W14       29.54R
WASECA         CLOUDY    39  36  87 NW15      29.56R
ALBERT LEA     CLOUDY    37  37 100 NW10G20   29.53R
$$
MNZ078>079-086>088-094>096-262000-
   Southeast Minnesota

CITY           SKY/WX    TMP DP  RH WIND       PRES   REMARKS
ROCHESTER      CLOUDY    40  38  93 NW20      29.49S
RED WING       CLOUDY    41  36  81 NW9       29.50S
STANTON        CLOUDY    40  36  84 NW15      29.51S
DODGE CENTER   CLOUDY    37  37 100 NW13      29.51R
WINONA         CLOUDY    46  41  81 NW9G18    29.47F
AUSTIN         CLOUDY    39  36  87 NW15G21   29.51S
PRESTON        CLOUDY    41  38  86 NW14      29.48S
$$
ABBREVIATIONS USED IN REMARKS
   TC - TEMPERATURES IN CELSIUS
  WCI - WIND CHILL INDEX
   HX - HEAT INDEX
  VSB - VISIBILITY
$$




USA.gov is the U.S. government's official web portal to all federal, state and local government web resources and services.